SCP
0 1 1 0 0 0 0 0 0 0 0 0 0 0 0 0 0 0 0 1 1 1 1 1 1 2 3 3 3 2 2 2 1 1 1 1 0 0 0 0 0 0 1 1
0 0 0 0 0 0 0 0 0 0 0 0 0 0 0 0 0 0 0 0 1 1 1 1 1 2 3 3 3 2 2 1 1 1 1 1 1 0 0 0 0 0 1 1
0 0 0 0 0 0 0 0 0 0 0 0 0 0 0 0 0 0 0 1 1 1 1 1 1 2 3 3 3 2 2 1 1 1 1 1 1 1 0 0 0 0 1 1
0 0 0 0 0 0 0 0 0 0 0 0 0 0 0 0 1 1 0 1 1 1 1 1 1 2 3 3 3 2 2 1 1 1 1 1 1 1 1 0 0 0 0 0
0 0 0 0 0 0 0 0 0 0 0 0 0 0 0 0 1 1 1 1 1 1 1 1 2 2 2 2 2 2 1 1 1 1 1 1 1 1 1 1 0 0 0 0
0 0 0 0 0 0 0 0 0 0 0 0 0 0 0 0 0 1 1 1 1 1 1 2 2 2 2 2 2 1 1 1 1 1 1 2 2 2 1 1 1 1 0 0
0 0 0 0 0 0 0 0 0 0 0 0 0 0 0 0 0 1 1 1 1 1 1 1 1 1 1 2 2 2 2 2 2 1 2 2 3 2 2 1 1 1 0 0
0 0 0 0 0 0 0 0 0 0 0 0 0 0 0 0 0 0 1 1 1 1 1 1 1 1 1 2 2 3 3 3 3 3 3 3 3 3 2 2 1 1 0 0
0 0 0 0 0 0 0 0 0 0 0 0 0 0 0 0 0 0 0 1 1 1 1 1 1 1 1 1 2 3 3 3 3 3 4 4 5 4 3 2 2 1 0 0
0 0 0 0 0 0 0 0 0 0 0 0 0 0 0 0 0 0 0 1 1 1 0 0 1 1 1 1 1 2 2 3 3 3 4 5 6 5 4 2 2 1 0 0
0 0 0 0 0 0 0 0 0 0 0 0 0 0 0 0 0 0 0 0 0 0 0 0 0 0 0 0 1 1 1 1 2 2 3 5 6 6 4 3 2 1 0 0
0 0 0 0 0 0 0 0 0 0 0 0 0 0 0 0 0 0 0 0 0 0 0 0 0 0 1 0 0 0 0 1 1 2 2 3 4 4 3 2 2 1 0 0
0 0 0 0 0 0 0 0 0 0 0 0 0 0 0 0 0 0 0 0 0 0 0 0 0 0 0 0 0 0 0 0 1 1 1 2 3 3 2 2 1 1 0 0
0 0 0 0 0 0 0 0 0 0 0 0 0 0 0 0 0 0 0 0 0 1 0 0 0 0 0 0 0 0 0 0 0 1 1 1 2 2 1 1 1 0 0 0
0 0 0 0 0 0 0 0 0 0 0 0 0 0 0 0 0 0 0 0 1 1 0 0 0 0 0 0 0 0 0 0 0 0 1 1 1 1 1 1 1 0 0 0
0 0 0 0 0 0 0 0 0 0 0 0 0 0 0 0 0 0 0 0 1 1 0 0 0 0 0 0 0 0 0 0 0 0 0 1 1 1 1 1 0 0 0 0
0 0 0 0 0 0 0 0 0 0 0 0 0 0 0 0 0 0 0 1 1 1 1 1 1 0 0 0 0 0 0 0 0 0 0 0 1 1 1 1 0 0 0 0
0 0 0 0 0 0 0 0 0 0 0 0 0 0 0 0 0 0 0 1 1 1 1 1 0 0 0 0 0 0 0 0 0 0 0 0 1 1 1 1 1 0 0 0
0 0 0 0 0 0 0 0 0 0 0 0 0 0 0 0 0 0 0 1 1 1 1 1 0 0 0 0 0 0 0 0 0 0 0 0 0 1 1 1 1 1 0 0
0 0 0 0 0 0 0 0 0 0 0 0 0 0 0 0 0 0 0 0 1 1 1 1 0 0 0 0 0 0 0 0 0 0 0 0 0 1 1 2 1 1 0 0
0 0 0 0 0 0 0 0 0 0 0 0 0 0 0 0 0 0 0 0 0 1 1 0 0 0 0 0 0 0 0 0 0 0 1 1 1 1 1 1 1 1 1 0
0 0 0 0 0 0 0 0 0 0 0 0 0 0 0 0 0 0 0 0 0 0 0 0 0 0 0 0 0 0 0 0 0 0 1 1 1 1 1 1 1 1 1 0
0 0 0 0 0 0 0 0 0 0 0 0 0 0 0 0 0 0 0 0 0 0 0 0 0 0 0 0 0 0 0 0 1 1 1 1 1 1 1 1 1 1 1 1
0 0 0 0 0 0 0 0 0 0 0 0 0 0 0 0 0 0 0 0 0 0 0 0 0 0 0 0 0 0 0 0 1 1 1 1 1 1 1 1 1 0 0 1
0 0 0 0 0 0 0 0 0 0 0 0 0 0 0 0 0 0 0 0 0 0 0 0 0 0 0 0 0 0 0 0 0 1 1 1 1 1 1 1 0 0 0 0
0 0 0 0 0 0 0 0 0 0 0 0 0 0 0 0 0 0 0 0 0 0 0 0 0 0 0 0 0 0 0 0 0 0 0 0 0 1 1 1 0 0 0 0
Wind_Speed
8 6 5 5 5 5 4 4 3 3 4 5 4 3 4 4 5 6 7 8 8 7 6 6 7 6 6 6 6 6 6 4 3 2 2 1 1 1 2 2 3 2 3 4
5 5 5 4 4 4 3 2 2 3 5 4 5 4 4 3 5 4 5 7 7 7 8 6 6 6 6 5 5 6 5 4 4 2 1 1 1 1 1 1 2 2 2 2
4 3 4 4 5 4 3 3 2 2 4 5 4 4 5 4 3 4 4 5 7 8 9 8 6 5 5 5 4 5 5 5 4 3 2 1 1 1 0 0 1 1 1 1
3 2 4 4 4 3 2 3 3 5 4 3 4 2 5 6 5 4 4 4 6 6 8 8 7 6 6 5 5 4 4 5 4 4 2 1 1 0 0 0 1 1 1 0
2 2 3 3 2 2 2 2 4 5 4 2 3 2 3 5 6 6 6 6 6 7 8 8 7 6 6 5 4 4 5 4 4 4 4 2 0 0 0 0 1 1 1 1
3 3 2 2 2 3 4 4 5 5 3 3 5 4 2 3 6 8 7 7 7 7 7 7 7 6 6 5 4 3 4 3 3 3 4 3 2 1 0 1 0 1 1 1
4 5 4 3 4 5 6 3 2 2 2 3 6 3 3 3 4 6 7 7 7 7 7 6 7 6 5 5 4 4 4 3 3 2 2 3 3 1 1 1 1 1 1 1
4 5 6 4 3 3 4 2 2 2 2 4 6 4 5 5 5 6 7 7 7 7 6 6 6 6 5 5 4 4 4 3 2 2 1 1 3 1 1 1 1 0 0 0
3 3 6 4 3 4 3 4 6 4 3 2 5 7 7 6 6 7 8 8 6 6 6 6 6 6 5 5 4 4 4 3 3 3 2 1 1 1 0 1 0 0 0 0
3 2 5 5 6 7 5 4 3 2 1 2 5 6 5 7 7 8 9 8 6 5 5 6 5 5 5 5 4 4 4 4 3 3 2 2 1 1 1 1 1 0 1 1
4 2 5 6 5 3 5 5 3 2 1 1 3 3 6 8 7 8 8 7 6 5 5 5 4 4 4 4 4 4 3 3 2 2 2 2 2 2 1 1 1 0 0 0
2 3 4 5 3 2 5 4 3 2 0 1 3 3 7 8 8 8 8 7 6 6 5 5 4 4 4 3 3 3 3 3 2 2 2 2 2 2 1 1 1 1 1 1
5 4 3 4 4 4 3 3 4 4 2 1 3 5 7 8 8 8 7 6 6 6 6 5 4 3 3 3 3 2 2 2 3 2 1 1 1 1 1 1 1 1 1 2
3 5 4 2 1 3 3 2 3 3 2 0 4 9 8 7 7 7 7 6 5 5 5 5 4 4 2 2 2 2 2 2 2 2 1 1 1 1 0 1 1 2 2 2
6 6 5 3 1 1 1 2 2 3 2 1 4 6 8 6 7 7 6 5 5 5 5 5 4 3 2 2 2 2 1 2 2 2 2 1 1 1 0 1 1 1 2 2
6 6 6 4 3 3 4 4 4 3 2 2 4 5 7 7 7 6 6 6 5 5 4 4 3 3 2 2 2 2 1 1 2 2 1 1 1 1 0 1 1 2 1 2
5 6 6 5 5 5 5 4 4 4 2 1 3 5 7 7 7 6 5 6 6 4 4 3 3 2 2 1 2 2 1 1 1 2 2 1 1 0 0 1 1 2 2 2
7 7 4 5 4 5 2 2 2 3 2 3 5 6 6 7 7 6 6 6 5 4 4 3 2 2 1 1 1 1 1 1 1 1 2 1 0 0 1 1 2 2 2 2
6 6 5 5 6 3 4 4 5 4 3 3 6 7 6 7 7 6 7 6 5 4 4 3 2 2 2 3 2 1 0 1 2 2 1 0 0 1 1 2 2 2 2 2
6 6 6 5 5 4 3 6 3 3 4 5 5 6 6 5 4 4 6 5 5 4 3 3 3 3 4 3 3 2 1 2 2 1 1 1 1 1 2 3 2 2 2 3
7 7 8 8 6 1 5 5 3 3 3 6 5 5 5 3 3 5 6 5 4 4 3 2 2 3 3 3 3 2 3 3 2 1 1 1 1 2 3 2 2 2 2 3
6 6 7 7 7 2 5 4 2 4 6 6 5 5 5 5 5 5 5 4 3 3 2 2 2 2 2 3 3 3 2 2 2 2 2 2 2 3 3 2 2 2 3 3
2 2 1 1 3 5 5 6 6 6 6 5 5 5 6 5 4 4 3 3 2 2 2 2 1 1 1 2 2 3 2 2 2 2 2 3 3 2 2 2 2 2 2 2
1 1 0 2 5 6 5 5 5 5 5 5 5 4 4 3 3 2 2 2 2 2 2 1 1 1 1 1 1 2 2 2 2 2 3 3 2 2 2 2 2 2 2 2
1 1 2 2 3 5 4 3 3 4 4 4 4 3 3 2 2 1 1 1 1 1 1 1 1 1 2 1 1 1 2 3 3 3 3 3 2 2 2 2 2 3 3 3
4 3 4 3 3 2 4 4 4 3 2 2 2 2 2 2 1 1 1 1 1 1 1 1 1 1 2 2 2 1 1 2 3 3 3 2 2 2 2 2 3 3 4 5
Wind_Direction
203 216 226 224 221 259 254 232 220 156 178 181 173 183 230 198 172 179 160 153 156 158 136 121 124 123 122 115 115 112 111 108 100 79 76 62 63 2 53 51 66 42 25 20
213 225 222 207 213 234 241 223 214 191 173 172 160 175 191 173 169 160 150 150 151 146 136 136 135 126 119 114 115 120 123 119 109 96 102 111 80 5 80 37 62 45 40 33
230 204 195 201 213 218 201 205 220 220 197 182 173 173 169 148 141 141 142 142 140 145 142 141 136 126 121 124 126 127 130 124 113 118 88 75 75 317 34 71 90 33 44 53
238 188 194 209 212 226 221 181 222 236 223 210 187 165 161 161 153 147 140 135 132 133 135 141 142 140 136 133 133 137 132 126 132 139 124 138 157 158 128 97 119 275 173 115
190 161 209 213 206 220 221 206 229 238 236 237 171 153 159 165 158 161 151 149 147 144 143 145 142 141 137 131 133 141 134 133 141 143 148 177 147 60 24 28 112 272 199 176
176 173 198 219 207 225 232 218 231 237 245 222 181 156 135 173 165 154 147 149 143 141 139 140 138 134 128 127 130 129 127 123 132 164 173 167 149 176 252 284 261 292 249 170
181 184 175 195 207 209 230 235 239 201 209 186 143 122 133 129 135 140 143 142 138 137 134 134 132 129 132 138 147 145 132 141 162 189 194 155 154 184 200 253 233 270 330 35
199 184 175 186 226 237 223 191 251 246 206 152 133 118 121 118 118 122 121 120 125 127 131 134 134 134 137 141 150 151 152 166 170 192 229 171 157 177 178 220 244 194 239 124
246 155 147 169 230 258 226 207 235 262 237 161 121 122 126 133 127 126 122 119 119 124 127 129 130 134 142 151 157 163 159 165 176 195 206 200 104 119 48 290 336 20 328 95
292 184 158 166 220 228 254 258 244 256 248 138 135 144 142 139 133 125 123 123 119 115 119 121 130 139 146 149 156 167 168 172 192 201 200 162 178 177 167 253 266 34 359 15
286 246 170 185 219 234 220 232 244 250 229 147 136 106 122 132 124 120 118 116 119 119 119 119 121 126 133 140 155 163 164 164 180 199 190 169 187 185 170 233 304 287 269 279
269 278 213 185 166 285 291 298 295 301 242 150 117 110 117 117 113 111 111 115 116 116 114 113 114 118 126 138 150 156 158 161 170 200 191 176 172 158 168 198 264 287 274 248
341 290 234 176 177 197 240 287 302 299 296 156 133 126 115 110 110 110 110 112 114 115 114 109 109 110 120 130 132 139 144 153 155 165 179 138 150 151 183 219 255 273 275 268
270 264 265 284 285 189 204 218 285 298 310 81 118 129 125 119 118 113 111 111 110 112 112 111 112 113 116 116 113 115 115 109 120 134 134 141 151 147 243 253 251 259 273 284
247 269 266 267 320 265 249 244 253 269 295 45 120 124 129 126 119 116 114 112 107 102 99 103 108 112 118 112 111 114 122 124 124 127 138 155 164 136 264 283 277 283 287 295
246 263 270 247 226 228 245 244 243 249 279 145 132 116 114 110 107 106 108 104 96 88 83 86 91 98 113 112 107 104 102 111 121 116 118 118 106 105 272 296 299 302 305 301
248 255 271 259 210 215 236 226 220 210 210 194 135 124 118 118 110 105 105 104 96 82 76 73 70 73 68 96 115 128 138 103 86 97 98 107 131 143 259 291 302 289 278 278
282 281 270 267 238 231 126 93 128 155 150 114 104 114 120 114 100 91 94 96 93 82 74 66 57 53 48 70 80 103 116 119 103 84 90 88 360 249 251 275 284 277 272 265
253 274 274 258 254 222 166 162 162 162 149 132 127 123 118 118 115 98 87 82 83 75 64 52 31 29 28 53 48 25 116 95 82 65 47 48 323 280 253 256 268 280 289 282
238 248 261 263 258 253 138 135 138 170 155 140 138 133 137 139 138 115 97 88 82 73 60 44 24 26 29 28 24 3 10 52 53 51 10 356 306 273 254 247 256 271 281 274
202 218 237 259 259 144 98 116 149 191 129 122 121 124 129 126 95 102 97 86 83 81 69 50 35 32 26 13 8 355 15 23 11 10 350 309 282 278 269 252 249 264 272 276
205 209 218 232 241 187 119 143 132 90 91 97 100 97 98 89 86 94 99 92 83 78 73 59 46 33 23 8 357 357 15 10 357 342 301 278 265 265 278 268 262 256 260 268
226 326 345 26 79 79 85 79 72 83 89 81 84 92 100 102 101 101 106 107 94 73 57 53 56 28 15 8 360 352 354 353 339 319 300 291 288 278 274 265 266 268 261 263
177 9 255 114 121 107 93 87 78 73 78 72 68 73 89 96 98 105 103 98 88 72 44 22 14 353 348 351 354 350 340 334 324 307 296 290 289 296 291 287 269 264 263 262
360 316 258 227 137 124 129 115 102 85 85 86 75 69 70 82 78 68 63 72 75 61 44 2 331 323 324 328 339 340 328 323 316 306 295 292 287 279 283 277 269 265 258 251
244 243 245 229 174 167 146 130 122 116 104 97 92 76 63 60 51 20 8 33 45 43 5 328 322 321 322 326 325 328 320 312 305 301 305 304 297 284 275 277 290 290 271 273